EDT,Max TemperatureF,Mean TemperatureF,Min TemperatureF,Max Dew PointF,MeanDew PointF,Min DewpointF,Max Humidity, Mean Humidity, Min Humidity, Max Sea Level PressureIn, Mean Sea Level PressureIn, Min Sea Level PressureIn, Max VisibilityMiles, Mean VisibilityMiles, Min VisibilityMiles, Max Wind SpeedMPH, Mean Wind SpeedMPH, Max Gust SpeedMPH,PrecipitationIn, CloudCover, Events, WindDirDegrees
2013-4-1,54,46,37,43,28,17,80,53,26,30.17,30.04,29.85,10,10,10,21,10,26,0.00,3,,313
2013-4-2,52,41,30,21,16,12,63,42,21,30.31,30.25,30.17,10,10,10,15,6,22,0.00,1,,327
2013-4-3,54,43,32,20,15,12,59,41,22,30.41,30.33,30.29,10,10,10,17,7,25,0.00,3,,56
2013-4-4,54,47,39,27,20,14,45,37,28,30.29,30.13,30.02,10,10,10,12,5,16,0.00,7,,91
2013-4-5,68,51,34,32,28,26,75,49,22,30.12,30.06,30.01,10,10,8,16,5,21,0.00,2,,352
2013-4-6,74,59,44,35,31,26,53,38,22,30.17,30.05,29.92,10,10,10,23,10,28,0.00,6,,154
2013-4-7,74,68,61,51,44,36,56,44,32,29.98,29.95,29.91,10,10,10,21,11,26,T,7,,207
2013-4-8,75,66,56,54,50,46,72,59,46,29.98,29.94,29.89,10,10,10,25,9,32,T,7,,182
2013-4-9,84,73,62,59,56,52,67,54,40,30.05,29.99,29.93,10,10,10,24,11,30,T,5,Rain,181
2013-4-10,86,76,65,60,58,55,73,58,43,29.97,29.89,29.75,10,10,10,24,12,33,0.00,5,,188
2013-4-11,78,66,54,63,60,54,100,72,43,29.80,29.69,29.54,10,6,1,22,10,28,1.13,8,Rain-Thunderstorm,214
2013-4-12,57,49,41,54,38,32,93,70,46,29.98,29.79,29.62,10,9,5,24,12,32,0.06,5,Rain,269
2013-4-13,63,50,37,36,33,31,76,55,34,30.08,30.03,30.00,10,10,10,20,9,26,0.00,1,,251
2013-4-14,76,60,43,47,40,37,76,51,25,30.03,29.94,29.84,10,10,10,23,8,32,0.00,6,,146
2013-4-15,73,66,59,54,51,48,72,63,53,29.99,29.94,29.90,10,10,10,17,8,24,0.00,6,,157
2013-4-16,83,72,60,64,60,53,87,71,54,30.14,30.07,29.94,10,9,1,23,9,32,0.61,6,Rain-Thunderstorm,180
2013-4-17,78,70,62,66,62,60,93,79,64,30.15,30.07,29.94,10,10,9,21,7,26,0.02,6,Rain-Thunderstorm,121
2013-4-18,84,75,65,62,57,50,81,58,35,29.91,29.78,29.60,10,10,10,31,17,45,T,5,,171
2013-4-19,75,58,41,62,40,29,93,71,49,30.07,29.79,29.52,10,8,2,28,14,35,1.02,8,Rain,257
2013-4-20,58,48,37,34,29,24,82,55,28,30.38,30.23,30.08,10,10,10,17,8,23,0.00,1,,282
2013-4-21,62,51,40,32,29,26,60,44,27,30.50,30.41,30.33,10,10,10,15,7,21,0.00,5,,65
2013-4-22,73,57,41,41,37,30,70,50,29,30.34,30.23,30.11,10,10,10,14,4,18,0.00,2,,73
2013-4-23,72,62,51,52,47,41,71,58,44,30.12,30.02,29.87,10,10,10,24,11,30,T,6,,168
2013-4-24,69,55,41,57,45,35,93,73,53,30.28,29.98,29.81,10,7,1,23,11,30,0.72,7,Rain,287
2013-4-25,63,49,35,38,34,30,92,64,36,30.38,30.32,30.27,10,10,6,20,8,26,0.00,2,,258
2013-4-26,64,53,42,39,33,30,70,50,30,30.44,30.39,30.32,10,10,10,13,4,15,0.00,7,,126
2013-4-27,60,57,53,54,49,38,93,70,47,30.33,30.17,29.98,10,10,6,16,7,20,0.13,8,Rain,124
2013-4-28,68,62,55,59,55,52,100,84,67,29.98,29.90,29.87,10,9,5,20,9,24,0.06,7,Rain,201
2013-4-29,68,63,57,54,53,51,86,72,58,30.03,29.97,29.94,10,8,4,12,5,15,0.00,7,,227
2013-4-30,81,66,50,56,52,48,93,63,33,30.03,29.99,29.95,10,9,6,13,5,22,0.00,0,,134